Regional Weather Roundup
Issued by NWS

Home | Current Version | Previous Version | Graphics & Text | Print | Product List | Glossary On
Versions: 1 2 3 4 5 6 7 8 9 10 11 12 13 14 15 16 17 18 19 20 21 22 23 24 25 26 27 28 29 30 31 32 33 34 35 36 37 38 39 40 41 42 43 44 45 46 47 48 49 50
000
ASUS43 KMPX 191610
RWRMN
WEATHER ROUNDUP FOR MINNESOTA
NATIONAL WEATHER SERVICE TWIN CITIES/CHANHASSEN MN
1100 AM CDT THU APR 19 2018


NOTE: "FAIR" INDICATES FEW OR NO CLOUDS BELOW 12,000 FEET WITH NO
SIGNIFICANT WEATHER AND/OR OBSTRUCTIONS TO VISIBILITY. N/A MEANS
CURRENT SKY AND/OR WEATHER CONDITIONS ARE NOT AVAILABLE.

MNZ060>063-068>070-191700-
   Twin Cities Metro

CITY           SKY/WX    TMP DP  RH WIND       PRES   REMARKS
TWIN CITIES    FAIR      45  18  34 VRB5      30.47R
ST PAUL        FAIR      43  17  35 NW10      30.48R
CRYSTAL        FAIR      44  15  31 W7        30.46R
BLAINE         SUNNY     46  18  31 NW6       30.46R
LAKEVILLE      FAIR      43  18  36 N3        30.47R
EDEN PRAIRIE   FAIR      45  17  32 NW3       30.46R
SOUTH ST PAUL  FAIR      44  15  30 NW8       30.47R
LAKE ELMO      FAIR      43  18  36 NW6       30.47R
$$
MNZ001>005-007-008-013>017-022>024-027-028-191700-
   Northwest Minnesota

CITY           SKY/WX    TMP DP  RH WIND       PRES   REMARKS
BEMIDJI        FAIR      47  13  25 NW6       30.41S
HALLOCK        FAIR      48  28  46 CALM      30.40S
ROSEAU         FAIR      46  19  34 W6        30.41S
WARROAD        FAIR      48  19  32 NW5       30.41S
THIEF RVR FALL FAIR      45  21  38 W3        30.42S
CROOKSTON      FAIR      45  28  53 CALM      30.43R
FOSSTON        FAIR      48  18  29 W8        30.42R
DETROIT LAKES  FAIR      46  21  36 CALM      30.43R
MOORHEAD       FAIR      45  30  57 S5        30.44R
PARK RAPIDS    FAIR      47  18  31 CALM      30.41S
MAHNOMEN       FAIR      46  23  40 SW7       30.42R
$$
MNZ006-009>011-018-025>026-191700-
   North Central Minnesota

CITY           SKY/WX    TMP DP  RH WIND       PRES   REMARKS
BAUDETTE       FAIR      47  17  30 SW3       30.41R
FLAG ISLAND    FAIR      34  23  64 SE6       30.41R WCI  29
INTL FALLS     FAIR      48  11  22 W5        30.40S
WASKISH        FAIR      45  16  31 W5        30.42R
BIG FORK       FAIR      48  16  27 CALM      30.41R
LONGVILLE      FAIR      48  16  27 S3        30.42R
GRAND RAPIDS   FAIR      47  15  27 W5        30.43R
CRANE LAKE     FAIR      45  12  26 NW3       30.43R
ORR            FAIR      45  10  24 NW6       30.39R
COOK           FAIR      46  16  29 W5        30.41R
WALKER         FAIR      48  13  24 W7        30.41S
$$
MNZ012-019>021-037-191700-
   Northeast Minnesota

CITY           SKY/WX    TMP DP  RH WIND       PRES   REMARKS
DULUTH         FAIR      46  16  30 VRB5      30.40R
ELY            FAIR      45  10  24 NW7G16    30.39S
HIBBING        FAIR      45  14  28 NW9       30.40R
EVELETH        FAIR      46  16  29 NW10      30.41S
DULUTH HARBOR  FAIR      48  18  29 CALM      30.43S
TWO HARBORS    FAIR      54  25  32 W8        30.38S
SILVER BAY     FAIR      50  10  20 N6        30.37S
GRAND MARAIS     N/A     37  29  72 SW5       30.39R
G MARAIS ARPRT FAIR      45   5  19 N7        30.35S
$$
MNZ029>031-032-039>041-046>048-054>057-064-191700-
   West Central Minnesota

CITY           SKY/WX    TMP DP  RH WIND       PRES   REMARKS
FERGUS FALLS   FAIR      45  34  65 SW7       30.43S
WHEATON        SUNNY     46  30  53 SW5       30.47R
MORRIS         SUNNY     45  28  53 S9        30.45S
ALEXANDRIA     FAIR      47  25  42 W10       30.46R
ELBOW LAKE     FAIR      44  30  57 W8        30.45S
WADENA         FAIR      43  25  49 SW10      30.43R
GLENWOOD       FAIR      46  27  46 W13       30.46R
APPLETON       SUNNY     45  21  39 S7        30.47R
BENSON         SUNNY     46  25  42 SW9       30.49R
ORTONVILLE     SUNNY     46  27  46 S5        30.46R
MADISON        SUNNY     43  28  56 S7        30.46S
WILLMAR        FAIR      43  25  49 SW8       30.50R
$$
MNZ033>034-036-042>043-049>051-058-059-191700-
   Central Minnesota

CITY           SKY/WX    TMP DP  RH WIND       PRES   REMARKS
ST CLOUD       FAIR      48  20  32 W7        30.45S
SAUK CENTRE    FAIR      44  25  47 SW9       30.46R
PAYNESVILLE    FAIR      45  26  48 W8        30.47R
AITKIN         FAIR      46  18  31 W5        30.41S
PINE RIVER     FAIR      45  18  33 W3        30.44S
BRAINERD       FAIR      47  18  31 W9        30.43S
STAPLES        FAIR      45  21  39 W5        30.44R
LONG PRAIRIE   FAIR      45  21  39 S10       30.45R
LITTLE FALLS   FAIR      45   9  23 W7        30.45S
LITCHFIELD     FAIR      45  19  36 W5        30.48R
BUFFALO        FAIR      45  16  31 W7        30.48S
MAPLE LAKE     FAIR      47  21  36 W3        30.48R
HUTCHINSON     FAIR      43  25  50 W6        30.49R
$$
MNZ037-044-045-052-053-191700-
   East Central Minnesota

CITY           SKY/WX    TMP DP  RH WIND       PRES   REMARKS
PRINCETON      FAIR      48  19  32 W8        30.46R
MORA           FAIR      46  18  31 W8        30.45S
CAMBRIDGE        N/A     46  27  46 W6        30.46R
RUSH CITY      FAIR      45  19  36 CALM      30.45S
MOOSE LAKE     FAIR      46  19  34 W6        30.41R
HINCKLEY       FAIR      46  21  36 W8        30.43S
CLOQUET        FAIR      46   9  21 NW6       30.41R
MCGREGOR       FAIR      48  18  29 W7        30.43R
$$
MNZ071>073-080-081-089-090-097-098-191700-
   Southwest Minnesota

CITY           SKY/WX    TMP DP  RH WIND       PRES   REMARKS
MONTEVIDEO     SUNNY     45  19  36 W8        30.48R
GRANITE FALLS  SUNNY     39  29  67 SW3       30.50S
CANBY          SUNNY     44  20  39 S5        30.48R
MARSHALL       SUNNY     41  22  46 S5        30.49R
REDWOOD FALLS  SUNNY     39  25  57 CALM      30.48R
OLIVIA         SUNNY     43  25  49 W6        30.48R
PIPESTONE      SUNNY    N/A N/A N/A SE7       30.46R
WINDOM           N/A     36  16  44 CALM      30.48R
WORTHINGTON    SUNNY     33  19  56 CALM      30.48R
JACKSON        SUNNY     32  21  64 NE3       30.48R
TRACY          SUNNY     39  23  53 CALM      30.48R
SLAYTON        SUNNY     35  24  63 CALM      30.48R
$$
MNZ065>067-074>077-082>085-091>093-191700-
   South Central Minnesota

CITY           SKY/WX    TMP DP  RH WIND       PRES   REMARKS
MANKATO        FAIR      38  23  55 N3        30.49R
NEW ULM        SUNNY     41  21  45 NW3       30.49R
ST JAMES       SUNNY     34  21  60 CALM      30.51R
FAIRMONT       SUNNY     33  19  56 N7        30.50R WCI  27
GLENCOE        FAIR      42  22  45 CALM      30.48R
OWATONNA       FAIR      34  25  69 CALM      30.47R
WASECA         FAIR      32  23  69 CALM      30.49R
ALBERT LEA     FAIR      34  18  51 N5        30.47R WCI  30
$$
MNZ078>079-086>088-094>096-191700-
   Southeast Minnesota

CITY           SKY/WX    TMP DP  RH WIND       PRES   REMARKS
ROCHESTER      FAIR      34  25  69 NW9       30.46R WCI  27
RED WING       FAIR      45  10  24 N3        30.45S
STANTON        FAIR      37  22  54 SW5       30.46R
DODGE CENTER   FAIR      36  19  51 N8        30.46R
WINONA         FAIR      37  28  70 CALM      30.44R
AUSTIN         FAIR      34  19  55 N8        30.47R WCI  27
PRESTON        FAIR      35  22  59 NW9       30.45R WCI  28
$$
ABBREVIATIONS USED IN REMARKS
   TC - TEMPERATURES IN CELSIUS
  WCI - WIND CHILL INDEX
   HX - HEAT INDEX
  VSB - VISIBILITY
$$



USA.gov is the U.S. government's official web portal to all federal, state and local government web resources and services.